Total_Precipitation_Accumulation
0.11 0.12 0.15 0.19 0.19 0.12 0.06 0.03 0.03 0.04 0.04 0.04 0.05 0.06 0.07 0.08 0.11 0.17 0.14 0.11 0.13 0.16 0.29 0.52 0.70 0.85 0.87 0.85 0.74 0.61 0.53 0.54 0.59 0.69 0.80 0.84 0.78 0.70 0.64 0.62 0.61 0.70 0.79 0.79 0.76 0.71 0.58 0.45 0.38
0.13 0.18 0.26 0.30 0.19 0.09 0.03 0.02 0.02 0.04 0.04 0.05 0.06 0.08 0.10 0.10 0.11 0.15 0.19 0.20 0.17 0.22 0.35 0.55 0.80 0.98 1.00 0.89 0.82 0.72 0.61 0.56 0.61 0.63 0.72 0.82 0.85 0.87 0.77 0.74 0.74 0.73 0.71 0.70 0.69 0.57 0.50 0.41 0.30
0.22 0.31 0.44 0.35 0.17 0.07 0.03 0.01 0.02 0.03 0.06 0.07 0.09 0.10 0.17 0.19 0.17 0.20 0.22 0.28 0.29 0.33 0.47 0.70 0.97 1.14 1.15 1.03 0.95 0.86 0.73 0.65 0.67 0.67 0.69 0.77 0.85 0.89 0.91 0.90 0.85 0.75 0.61 0.58 0.61 0.51 0.47 0.42 0.33
0.37 0.53 0.56 0.35 0.13 0.06 0.04 0.03 0.03 0.07 0.10 0.12 0.15 0.21 0.25 0.24 0.26 0.25 0.26 0.40 0.48 0.53 0.70 0.88 1.07 1.22 1.21 1.13 1.05 1.02 0.91 0.79 0.81 0.80 0.74 0.78 0.82 0.89 0.97 0.95 0.83 0.73 0.63 0.57 0.52 0.50 0.47 0.43 0.35
0.57 0.70 0.57 0.33 0.12 0.05 0.05 0.04 0.04 0.08 0.12 0.15 0.20 0.29 0.37 0.35 0.37 0.42 0.42 0.58 0.71 0.74 0.91 1.05 1.19 1.31 1.28 1.23 1.17 1.14 1.13 1.05 0.99 0.94 0.87 0.88 0.87 0.90 0.93 0.90 0.72 0.66 0.66 0.64 0.59 0.53 0.51 0.49 0.39
0.85 0.82 0.57 0.34 0.14 0.07 0.05 0.04 0.06 0.10 0.13 0.18 0.26 0.41 0.48 0.55 0.62 0.70 0.75 0.82 0.95 1.01 1.17 1.27 1.42 1.51 1.43 1.33 1.26 1.25 1.32 1.31 1.23 1.17 1.08 0.99 0.98 0.95 0.89 0.83 0.68 0.64 0.67 0.71 0.67 0.59 0.52 0.49 0.41
0.90 0.82 0.52 0.29 0.16 0.09 0.08 0.05 0.06 0.11 0.15 0.18 0.25 0.49 0.59 0.78 0.95 1.07 1.17 1.23 1.27 1.42 1.54 1.67 1.67 1.59 1.58 1.51 1.42 1.35 1.37 1.40 1.42 1.33 1.25 1.11 1.07 1.01 0.89 0.79 0.77 0.71 0.70 0.69 0.66 0.64 0.57 0.49 0.42
0.98 0.98 0.56 0.30 0.21 0.14 0.09 0.08 0.08 0.09 0.14 0.18 0.25 0.49 0.67 0.86 1.21 1.52 1.70 1.81 1.84 1.90 1.96 2.06 2.05 1.87 1.75 1.65 1.55 1.47 1.41 1.46 1.52 1.42 1.19 1.01 0.98 1.00 0.91 0.73 0.77 0.79 0.73 0.67 0.62 0.62 0.61 0.49 0.41
1.18 1.26 0.64 0.28 0.22 0.17 0.12 0.11 0.14 0.12 0.17 0.24 0.30 0.40 0.68 1.03 1.47 1.92 2.22 2.39 2.43 2.33 2.32 2.27 2.29 2.22 2.08 1.94 1.70 1.64 1.54 1.53 1.47 1.35 1.18 1.06 1.02 0.95 0.85 0.63 0.59 0.69 0.70 0.66 0.62 0.60 0.61 0.48 0.37
1.31 1.20 0.57 0.29 0.27 0.24 0.21 0.17 0.19 0.22 0.28 0.32 0.41 0.54 0.83 1.28 1.78 2.11 2.34 2.43 2.51 2.46 2.51 2.46 2.44 2.44 2.33 2.15 2.02 1.89 1.71 1.60 1.49 1.29 1.16 1.14 1.06 0.98 0.83 0.69 0.57 0.63 0.65 0.70 0.69 0.62 0.59 0.50 0.36
0.97 0.74 0.47 0.40 0.38 0.36 0.37 0.34 0.31 0.33 0.35 0.35 0.44 0.61 1.00 1.46 1.95 2.27 2.46 2.49 2.58 2.73 2.84 2.82 2.73 2.78 2.79 2.56 2.27 2.12 1.89 1.68 1.62 1.43 1.30 1.22 1.22 1.18 1.10 0.92 0.75 0.73 0.66 0.66 0.67 0.62 0.49 0.43 0.36
0.68 0.48 0.48 0.52 0.49 0.51 0.54 0.48 0.44 0.40 0.34 0.34 0.49 0.68 1.00 1.55 1.94 2.18 2.37 2.50 2.68 2.92 3.10 3.29 3.18 3.08 3.10 2.89 2.60 2.33 2.10 1.84 1.70 1.63 1.51 1.40 1.30 1.19 1.14 1.02 0.86 0.77 0.66 0.62 0.67 0.61 0.49 0.45 0.38
0.56 0.47 0.52 0.61 0.61 0.59 0.60 0.56 0.47 0.42 0.39 0.49 0.74 0.97 1.16 1.51 1.92 2.29 2.43 2.50 2.72 2.81 3.09 3.43 3.37 3.21 3.11 2.95 2.71 2.40 2.27 2.07 1.86 1.84 1.78 1.60 1.46 1.31 1.20 1.15 1.03 0.92 0.77 0.63 0.63 0.68 0.61 0.59 0.54
0.44 0.48 0.59 0.71 0.71 0.68 0.74 0.68 0.60 0.55 0.60 0.77 1.00 1.18 1.32 1.50 1.87 2.28 2.51 2.61 2.68 2.81 2.99 3.30 3.39 3.20 3.12 2.98 2.72 2.41 2.20 2.09 2.01 1.83 1.72 1.70 1.56 1.45 1.37 1.22 1.07 1.00 0.89 0.74 0.64 0.67 0.71 0.70 0.68
0.47 0.64 0.75 0.83 0.83 0.80 0.90 0.93 0.67 0.63 0.75 0.85 0.99 1.26 1.49 1.62 1.86 2.12 2.30 2.48 2.62 2.84 3.05 3.15 3.34 3.37 3.12 3.03 2.76 2.46 2.37 2.18 2.03 1.89 1.70 1.65 1.61 1.53 1.50 1.35 1.13 1.05 1.05 0.95 0.84 0.81 0.83 0.78 0.68
0.66 0.78 0.86 0.75 0.84 0.92 1.07 1.07 0.69 0.68 0.75 0.82 0.94 1.14 1.40 1.59 1.79 2.03 2.21 2.41 2.63 2.88 3.10 3.15 3.19 3.31 3.23 3.07 2.93 2.54 2.35 2.32 2.14 2.03 1.86 1.71 1.66 1.65 1.65 1.52 1.28 1.27 1.35 1.25 1.08 0.97 0.89 0.82 0.75
0.82 0.75 0.67 0.63 0.70 0.92 1.04 1.03 0.77 0.67 0.73 0.75 0.86 1.01 1.16 1.33 1.56 1.91 2.20 2.48 2.65 2.78 3.06 3.23 3.21 3.23 3.39 3.31 3.16 2.95 2.62 2.34 2.32 2.28 2.04 1.78 1.69 1.68 1.64 1.56 1.47 1.48 1.48 1.40 1.25 1.14 1.06 0.92 0.86
0.61 0.53 0.50 0.56 0.57 0.79 0.86 0.83 0.79 0.71 0.75 0.70 0.72 0.86 1.03 1.19 1.34 1.64 2.00 2.42 2.65 2.77 3.01 3.23 3.24 3.21 3.46 3.65 3.50 3.23 2.94 2.50 2.24 2.23 2.12 1.95 1.79 1.71 1.66 1.57 1.58 1.64 1.59 1.51 1.44 1.30 1.21 1.12 1.05
0.47 0.46 0.43 0.44 0.49 0.69 0.75 0.69 0.78 0.75 0.69 0.68 0.69 0.74 0.84 1.01 1.23 1.43 1.75 2.14 2.39 2.67 2.89 3.08 3.16 3.14 3.21 3.40 3.37 3.10 2.79 2.56 2.24 2.10 2.13 2.08 2.00 1.98 1.87 1.66 1.64 1.69 1.59 1.49 1.55 1.59 1.54 1.43 1.31
0.49 0.49 0.46 0.45 0.51 0.69 0.74 0.68 0.67 0.67 0.64 0.64 0.69 0.68 0.73 0.80 0.99 1.15 1.42 1.73 2.03 2.32 2.70 2.92 3.09 3.23 3.10 2.98 3.10 3.10 2.96 2.73 2.50 2.32 2.29 2.15 2.04 1.99 1.99 1.95 1.84 1.85 1.82 1.73 1.64 1.66 1.71 1.65 1.58
0.47 0.44 0.41 0.49 0.59 0.67 0.73 0.76 0.61 0.57 0.54 0.55 0.59 0.58 0.62 0.74 0.84 0.97 1.16 1.38 1.68 1.98 2.34 2.63 2.84 3.07 3.18 3.13 3.25 3.25 3.13 2.86 2.57 2.31 2.18 2.15 2.09 2.04 1.97 2.01 2.04 2.01 1.98 1.87 1.78 1.71 1.69 1.72 1.68
0.44 0.29 0.36 0.48 0.73 0.76 0.72 0.91 0.57 0.52 0.54 0.55 0.60 0.60 0.60 0.67 0.76 0.88 1.03 1.20 1.41 1.72 1.98 2.24 2.58 2.84 3.04 3.18 3.13 3.03 2.89 2.61 2.33 2.26 2.29 2.25 2.15 2.05 2.03 2.00 2.01 2.06 2.01 1.92 1.91 1.90 1.76 1.76 1.77
0.39 0.27 0.38 0.53 0.73 0.81 0.59 0.76 0.63 0.50 0.61 0.65 0.66 0.66 0.63 0.65 0.73 0.80 0.93 1.09 1.25 1.51 1.77 1.94 2.21 2.53 2.69 2.69 2.73 2.78 2.72 2.58 2.46 2.42 2.37 2.27 2.11 2.01 1.95 1.94 1.95 1.96 1.97 1.95 1.96 1.98 1.94 1.84 1.78
0.40 0.47 0.55 0.63 0.98 1.16 0.67 0.78 0.75 0.71 0.78 0.69 0.61 0.61 0.67 0.72 0.78 0.85 0.93 1.03 1.12 1.27 1.51 1.72 1.81 2.04 2.27 2.31 2.38 2.48 2.40 2.38 2.37 2.29 2.29 2.30 2.10 1.91 1.86 1.83 1.80 1.85 1.87 1.89 1.94 2.00 2.03 1.98 1.83
0.54 0.93 1.29 1.30 1.28 0.92 0.54 0.72 0.88 0.79 0.81 0.81 0.73 0.69 0.76 0.82 0.92 0.98 0.99 1.08 1.14 1.21 1.25 1.47 1.61 1.69 1.88 2.07 2.16 2.16 2.22 2.22 2.21 2.13 2.08 2.16 2.16 1.93 1.77 1.75 1.74 1.77 1.78 1.85 1.99 2.05 2.05 2.05 1.98
0.53 0.74 1.04 1.01 0.80 0.56 0.47 0.74 0.87 0.79 0.76 0.75 0.74 0.75 0.78 0.91 1.06 1.10 1.10 1.23 1.29 1.31 1.30 1.37 1.44 1.43 1.53 1.74 1.92 1.95 2.05 2.03 1.94 1.86 1.81 1.82 1.85 1.84 1.80 1.79 1.79 1.80 1.82 1.82 1.87 1.91 1.90 1.95 1.95
0.61 0.59 0.52 0.93 0.78 0.63 0.57 0.60 0.64 0.61 0.65 0.73 0.76 0.76 0.82 0.96 1.11 1.20 1.23 1.27 1.26 1.24 1.32 1.38 1.43 1.37 1.32 1.39 1.52 1.64 1.75 1.77 1.69 1.62 1.56 1.57 1.62 1.67 1.73 1.78 1.80 1.76 1.74 1.73 1.75 1.75 1.71 1.76 1.81
0.51 0.50 0.69 1.30 1.23 0.84 0.55 0.54 0.77 0.73 0.76 0.75 0.75 0.77 0.86 0.90 0.99 1.11 1.13 1.12 1.17 1.19 1.25 1.37 1.42 1.43 1.34 1.32 1.35 1.43 1.46 1.47 1.44 1.43 1.39 1.33 1.34 1.38 1.45 1.56 1.65 1.67 1.65 1.63 1.64 1.63 1.57 1.60 1.57
0.51 0.59 0.75 0.99 0.96 0.97 0.67 0.77 0.91 0.82 0.77 0.73 0.71 0.74 0.80 0.83 0.85 0.88 0.90 0.95 1.01 1.06 1.18 1.32 1.42 1.42 1.31 1.33 1.34 1.31 1.32 1.38 1.33 1.26 1.25 1.26 1.23 1.20 1.26 1.31 1.37 1.41 1.46 1.49 1.51 1.50 1.49 1.49 1.45
0.41 0.48 0.66 1.13 0.94 0.75 0.73 0.80 0.73 0.67 0.64 0.64 0.66 0.69 0.71 0.76 0.79 0.77 0.76 0.74 0.74 0.81 0.91 1.03 1.15 1.19 1.18 1.22 1.29 1.22 1.20 1.32 1.32 1.22 1.16 1.15 1.13 1.04 1.06 1.12 1.15 1.15 1.14 1.17 1.23 1.26 1.30 1.34 1.35